Content
SEND FEEDBACK

Daily
Averages
Monthly
Summary
Switzerland

GENEVA, SWITZERLAND


Home > Europe > Switzerland
Elevation: 1364 feet     Latitude: 46 15N     Longitude: 006 08E

WEATHER
 
SELECT A DAY
Number of Records: 306,355;   Date Range: 7/1/96 - 9/20/14
 
SHARE

PRINT THIS DATA

[ ← Previous Day ]
WEATHER ALMANAC - MARCH 12, 2013
[ Next Day → ]
[ °C ]   °F
Weather ElementAverageHighLow
Temperature46 °F54 °F (5:00 pm)39.2 °F (1:50 am)
Dewpoint36.5 °F41 °F (7:20 am)32 °F (9:00 pm)
Humidity68.4 %93 % (1:50 am)32 % (5:00 pm)
Barometer29.43 in29.50 in (1:00 am)29.39 in (3:20 pm)
Wind Speed6.5 mph18.4 mph (11:00 am)
Weather ElementAverage
Visibility7.9 mi
Wind DirectionS (183.3 °)

Weather ElementTotal
Precipitation---
Heating Degree Days18.4 (Base 65)
Averaged from 67 records on March 12, 2013
WEATHER CONDITIONS BREAKOUT
WIND DIRECTION BREAKOUT
WEATHER BY HOUR - MARCH 12, 2013
[ °C ]   °F
Local TimeTemperatureDewpointHumidityBarometerVisibilityWind DirectionWind SpeedGust SpeedPrecipitationEventsConditions
12:20 AM41.0 °F37.4 °F87 %29.47 in6.2 miWSW (250°)1.2 mphMostly Cloudy
12:50 AM41.0 °F37.4 °F87 %29.47 in6.2 miWest (280°)2.3 mphRainLight Rain Showers
1:00 AM41.0 °F36.0 °F77 %29.50 in19.0 miNorth (350°)1.2 mphRainLight Rain Showers
1:20 AM41.0 °F37.4 °F87 %29.44 in6.2 miCalmMostly Cloudy
1:50 AM39.2 °F37.4 °F93 %29.44 in6.2 miCalmMostly Cloudy
2:00 AM40.0 °F36.0 °F81 %29.49 inNorth (10°)1.2 mph
2:20 AM39.2 °F37.4 °F93 %29.44 in6.2 miNW (310°)2.3 mphMostly Cloudy
2:50 AM41.0 °F37.4 °F87 %29.44 in6.2 miCalmMostly Cloudy
3:00 AM41.0 °F37.0 °F80 %29.47 inNNE (20°)1.2 mph
3:20 AM41.0 °F37.4 °F87 %29.44 in6.2 miNNW (330°)2.3 mphRainLight Rain Showers
3:50 AM41.0 °F37.4 °F87 %29.42 in6.2 miCalmRainLight Rain Showers
4:20 AM41.0 °F39.2 °F93 %29.42 in6.2 miWest (270°)1.2 mphRainLight Rain Showers
4:50 AM41.0 °F39.2 °F93 %29.42 in6.2 miCalmRainLight Rain Showers
5:00 AM43.0 °F39.0 °F81 %29.46 inWest (270°)3.5 mph
5:20 AM44.6 °F39.2 °F81 %29.42 in6.2 miSW (220°)8.1 mphRainLight Rain
5:50 AM42.8 °F39.2 °F87 %29.42 in6.2 miWest (270°)5.8 mphMostly Cloudy
6:00 AM43.0 °F39.0 °F81 %29.44 inWest (270°)5.8 mph
6:20 AM42.8 °F39.2 °F87 %29.42 in6.2 miWest (260°)6.9 mphMostly Cloudy
6:50 AM44.6 °F39.2 °F81 %29.42 in6.2 miWest (260°)4.6 mphMostly Cloudy
7:00 AM43.0 °F40.0 °F83 %29.44 in25.0 miWest (270°)5.8 mphRainLight Rain Showers
7:20 AM42.8 °F41.0 °F93 %29.42 in6.2 miWest (260°)4.6 mphMostly Cloudy
7:50 AM44.6 °F39.2 °F81 %29.42 in6.2 miWest (260°)5.8 mphMostly Cloudy
8:00 AM44.0 °F40.0 °F79 %29.44 inWest (260°)4.6 mph
8:20 AM44.6 °F41.0 °F87 %29.42 in6.2 miWSW (250°)4.6 mphRainLight Rain
8:50 AM44.6 °F41.0 °F87 %29.42 in6.2 miWest (260°)4.6 mphMostly Cloudy
9:00 AM45.0 °F40.0 °F75 %29.45 inWest (270°)4.6 mph
9:20 AM46.4 °F41.0 °F81 %29.42 in6.2 miWSW (240°)5.8 mphMostly Cloudy
9:50 AM46.4 °F39.2 °F76 %29.42 in6.2 miSW (220°)6.9 mphMostly Cloudy
10:20 AM50.0 °F41.0 °F71 %29.42 in6.2 miSSW (210°)16.1 mphMostly Cloudy
10:50 AM50.0 °F41.0 °F71 %29.42 in6.2 miSW (220°)15.0 mphMostly Cloudy
11:00 AM51.0 °F39.0 °F53 %29.43 inSSW (210°)18.4 mph
11:20 AM50.0 °F39.2 °F66 %29.42 in6.2 miSSW (210°)17.3 mphMostly Cloudy
11:50 AM50.0 °F37.4 °F62 %29.42 in6.2 miSW (220°)12.7 mphMostly Cloudy
12:00 PM51.0 °F36.0 °F46 %29.44 inSW (220°)15.0 mph
12:20 PM50.0 °F37.4 °F62 %29.42 in6.2 miSSW (210°)15.0 mphMostly Cloudy
12:50 PM51.8 °F37.4 °F58 %29.42 in6.2 miSW (220°)12.7 mphMostly Cloudy
1:00 PM52.0 °F36.0 °F43 %29.43 in37.0 miSW (220°)13.8 mphPartly Cloudy
1:20 PM51.8 °F37.4 °F58 %29.42 in6.2 miSW (220°)10.4 mphMostly Cloudy
1:50 PM51.8 °F35.6 °F54 %29.42 in6.2 miWSW (240°)9.2 mphMostly Cloudy
2:00 PM53.0 °F34.0 °F36 %29.42 inSW (230°)12.7 mph
2:20 PM51.8 °F35.6 °F54 %29.42 in6.2 miSW (230°)12.7 mphMostly Cloudy
2:50 PM53.6 °F33.8 °F47 %29.42 in6.2 miSW (230°)13.8 mphMostly Cloudy
3:00 PM53.0 °F33.0 °F35 %29.40 inSW (230°)12.7 mph
3:20 PM53.6 °F33.8 °F47 %29.39 in6.2 miSW (230°)13.8 mphMostly Cloudy
3:50 PM53.6 °F33.8 °F47 %29.39 in6.2 miWSW (250°)9.2 mphScattered Clouds
4:20 PM53.6 °F33.8 °F47 %29.39 in6.2 miWest (260°)9.2 mphScattered Clouds
4:50 PM53.6 °F33.8 °F47 %29.39 in6.2 miWest (260°)10.4 mphScattered Clouds
5:00 PM54.0 °F33.0 °F32 %29.39 inWest (270°)11.5 mph
5:20 PM53.6 °F33.8 °F47 %29.39 in6.2 miWest (270°)9.2 mphScattered Clouds
5:50 PM50.0 °F35.6 °F58 %29.39 in6.2 miWSW (250°)6.9 mphScattered Clouds
6:00 PM51.0 °F33.0 °F39 %29.40 inWSW (250°)6.9 mph
6:20 PM48.2 °F35.6 °F62 %29.39 in6.2 miWSW (250°)6.9 mphScattered Clouds
6:50 PM46.4 °F35.6 °F66 %29.42 in6.2 miVariable3.5 mphScattered Clouds
7:00 PM48.0 °F34.0 °F47 %29.42 in31.0 miWest (270°)2.3 mphScattered Clouds
7:20 PM46.4 °F35.6 °F66 %29.42 in6.2 miVariable1.2 mphScattered Clouds
7:50 PM46.4 °F33.8 °F62 %29.42 in6.2 miVariable2.3 mphScattered Clouds
8:00 PM45.0 °F33.0 °F51 %29.44 inNorth3.5 mph
8:20 PM44.6 °F33.8 °F66 %29.42 in6.2 miVariable2.3 mphMostly Cloudy
8:50 PM42.8 °F33.8 °F70 %29.42 in6.2 miVariable2.3 mphMostly Cloudy
9:00 PM43.0 °F32.0 °F53 %29.46 inNorth (10°)1.2 mph
9:20 PM42.8 °F33.8 °F70 %29.44 in6.2 miVariable3.5 mphMostly Cloudy
9:50 PM41.0 °F32.0 °F70 %29.44 in6.2 miVariable2.3 mphScattered Clouds
10:20 PM41.0 °F32.0 °F70 %29.44 in6.2 miVariable3.5 mphScattered Clouds
10:50 PM41.0 °F33.8 °F76 %29.44 in6.2 miVariable3.5 mphMostly Cloudy
11:00 PM40.0 °F32.0 °F64 %29.49 inWest (260°)5.8 mph
11:20 PM41.0 °F32.0 °F70 %29.44 in6.2 miWSW (240°)4.6 mphMostly Cloudy
11:50 PM41.0 °F32.0 °F70 %29.44 in6.2 miSW (230°)10.4 mphMostly Cloudy
Hourly data recorded from LSGG, located miles away from Geneva, Switzerland







STORIES FROM OUR PARTNERS